CST,Max TemperatureF,Mean TemperatureF,Min TemperatureF,Max Dew PointF,MeanDew PointF,Min DewpointF,Max Humidity, Mean Humidity, Min Humidity, Max Sea Level PressureIn, Mean Sea Level PressureIn, Min Sea Level PressureIn, Max VisibilityMiles, Mean VisibilityMiles, Min VisibilityMiles, Max Wind SpeedMPH, Mean Wind SpeedMPH, Max Gust SpeedMPH,PrecipitationIn, CloudCover, Events, WindDirDegrees
2013-11-1,51,44,37,37,36,34,93,76,50,29.82,29.66,29.45,10,10,8,20,12,25,0.00,5,,295
2013-11-2,50,42,33,37,30,25,93,70,37,30.13,30.02,29.83,10,10,9,20,11,26,0.00,2,,320
2013-11-3,53,42,32,34,30,27,81,63,41,30.16,30.07,29.95,10,10,10,29,14,38,0.00,1,,146
2013-11-4,48,42,33,46,39,32,100,85,57,30.17,30.00,29.92,10,7,0,22,15,31,0.06,7,Fog-Rain,173
2013-11-5,44,36,28,45,37,28,100,95,81,30.22,30.05,29.81,10,4,0,23,7,23,1.35,7,Fog-Rain,51
2013-11-6,42,35,28,36,28,23,93,75,46,30.21,30.07,29.83,10,9,2,29,18,39,0.03,3,Rain,317
2013-11-7,42,34,26,32,27,23,93,79,53,30.27,30.23,30.18,10,10,10,20,8,23,0.00,4,,271
2013-11-8,46,35,24,37,28,21,93,71,46,30.24,30.00,29.73,10,10,10,29,9,41,0.00,3,,160
2013-11-9,50,44,39,39,36,32,87,72,54,30.11,29.91,29.74,10,10,10,26,16,36,0.00,4,,277
2013-11-10,,,,,,,,,,,,,,,,,,,,,,
2013-11-11,,,,,,,,,,,,,,,,,,,,,,
2013-11-12,23,18,12,12,10,7,79,70,59,30.79,30.68,30.53,10,10,10,12,8,14,0.00,0,,253
2013-11-13,46,30,15,27,18,10,79,62,46,30.52,30.22,29.99,10,10,10,24,13,32,0.00,0,,194
2013-11-14,48,38,28,32,27,19,81,63,50,29.99,29.90,29.84,10,10,10,15,10,16,0.00,1,,205
2013-11-15,53,40,28,37,33,27,93,77,54,29.90,29.83,29.74,10,10,4,14,6,20,0.00,1,,169
2013-11-16,59,50,41,55,45,34,100,87,76,29.74,29.48,29.27,10,7,1,21,14,29,0.02,5,Rain,169
2013-11-17,46,40,35,41,37,32,93,82,66,29.87,29.52,29.32,10,9,2,26,12,36,0.09,5,Rain,284
2013-11-18,37,32,24,30,25,21,86,74,56,30.28,30.11,29.88,10,10,9,26,18,36,0.00,3,,304
2013-11-19,44,32,21,30,25,19,93,72,49,30.28,30.16,30.03,10,10,9,23,11,31,0.00,2,,142
2013-11-20,41,38,35,36,30,23,100,77,49,30.04,29.99,29.92,10,7,2,21,17,29,0.00,8,Rain,149
2013-11-21,37,32,26,37,31,23,100,93,80,30.40,30.20,30.04,10,3,0,21,9,29,0.00,8,Fog-Rain-Snow,337
2013-11-22,28,22,17,23,16,10,86,75,51,30.58,30.51,30.41,10,9,2,25,16,33,0.00,2,Rain-Snow,310
2013-11-23,21,13,5,14,3,-2,78,68,53,30.77,30.71,30.52,10,10,10,23,16,32,0.00,1,,320
2013-11-24,24,14,3,10,5,-2,78,64,46,30.71,30.47,30.18,10,10,8,23,10,29,0.00,0,,197
2013-11-25,37,29,21,28,22,10,86,72,59,30.18,30.06,30.01,10,10,1,20,15,29,0.00,6,Snow,252
2013-11-26,33,24,14,23,10,3,75,57,40,30.31,30.19,30.07,10,10,10,30,18,38,0.00,4,Rain,325
2013-11-27,24,16,8,9,6,3,79,66,43,30.35,30.24,30.07,10,10,10,14,9,12,0.00,1,,225
2013-11-28,32,22,12,16,11,7,86,69,48,30.49,30.26,30.05,10,10,9,17,9,24,0.00,1,,333
2013-11-29,32,21,10,21,15,7,85,72,55,30.51,30.40,30.21,10,10,7,18,7,24,0.00,2,,148
2013-11-30,44,34,23,28,25,19,86,72,53,30.19,30.08,30.02,10,10,8,15,11,21,0.00,1,,241